Tiempo cada hora Abengourou

Hoy, 29 Octubre, Jueves

Tiempo Temperatura Precipitaciones Viento Presión Humedad
00:00 +22°C° 0 mm 0 mps 741 mmHg 98%
01:00 +22°C° 0 mm 0 mps 740 mmHg 98%
02:00 +22°C° 0 mm 0 mps 740 mmHg 98%
03:00 +21°C° 0 mm 0 mps 740 mmHg 99%
04:00 +21°C° 0 mm 0 mps 740 mmHg 99%
05:00 +21°C° 0 mm 0 mps 740 mmHg 99%
06:00 +21°C° 0 mm 0 mps 740 mmHg 99%
07:00 +23°C° 0 mm 0 mps 741 mmHg 91%
08:00 +27°C° 0 mm 1 mps 741 mmHg 83%
09:00 +29°C° 0 mm 1 mps 742 mmHg 76%
10:00 +31°C° 0 mm 1 mps 741 mmHg 65%
11:00 +32°C° 0 mm 0 mps 741 mmHg 54%
12:00 +34°C° 0 mm 0 mps 741 mmHg 43%
13:00 +33°C° 0 mm 0 mps 740 mmHg 46%
14:00 +35°C° 0 mm 1 mps 739 mmHg 48%
15:00 +34°C° 0 mm 1 mps 738 mmHg 51%
16:00 +32°C° 0.1 mm 1 mps 738 mmHg 62%
17:00 +28°C° 0.1 mm 0 mps 739 mmHg 72%
18:00 +26°C° 0.1 mm 0 mps 739 mmHg 82%
19:00 +25°C° 0.3 mm 0 mps 740 mmHg 86%
20:00 +26°C° 0.3 mm 1 mps 740 mmHg 89%
21:00 +25°C° 0.3 mm 1 mps 741 mmHg 93%
22:00 +25°C° 0 mm 1 mps 741 mmHg 94%
23:00 +25°C° 0 mm 1 mps 741 mmHg 96%

Mañana, 30 Octubre, Viernes

Tiempo Temperatura Precipitaciones Viento Presión Humedad
00:00 +22°C° 0 mm 0 mps 741 mmHg 97%
01:00 +22°C° 0 mm 0 mps 740 mmHg 98%
02:00 +22°C° 0 mm 0 mps 740 mmHg 98%
03:00 +22°C° 0 mm 0 mps 740 mmHg 98%
04:00 +22°C° 0 mm 0 mps 740 mmHg 99%
05:00 +21°C° 0 mm 0 mps 740 mmHg 99%
06:00 +21°C° 0 mm 0 mps 740 mmHg 99%
07:00 +23°C° 0 mm 0 mps 741 mmHg 92%
08:00 +27°C° 0 mm 1 mps 741 mmHg 85%
09:00 +28°C° 0 mm 1 mps 742 mmHg 79%
10:00 +31°C° 0 mm 1 mps 741 mmHg 68%
11:00 +33°C° 0 mm 1 mps 741 mmHg 56%
12:00 +34°C° 0 mm 0 mps 740 mmHg 45%
13:00 +35°C° 0.2 mm 1 mps 739 mmHg 49%
14:00 +34°C° 0.2 mm 1 mps 739 mmHg 54%
15:00 +33°C° 0.2 mm 1 mps 738 mmHg 58%
16:00 +31°C° 0.1 mm 1 mps 738 mmHg 66%
17:00 +29°C° 0.1 mm 1 mps 739 mmHg 74%
18:00 +26°C° 0.1 mm 0 mps 739 mmHg 82%
19:00 +27°C° 0.5 mm 1 mps 740 mmHg 86%
20:00 +26°C° 0.5 mm 1 mps 740 mmHg 90%
21:00 +25°C° 0.5 mm 1 mps 741 mmHg 94%
22:00 +25°C° 0.5 mm 1 mps 741 mmHg 95%
23:00 +25°C° 0.5 mm 1 mps 741 mmHg 97%

Pasado mañana, 31 Octubre, Sábado

Tiempo Temperatura Precipitaciones Viento Presión Humedad
00:00 +24°C° 0.5 mm 1 mps 741 mmHg 98%
01:00 +24°C° 0 mm 1 mps 741 mmHg 99%
02:00 +24°C° 0 mm 1 mps 741 mmHg 99%
03:00 +24°C° 0 mm 1 mps 740 mmHg 99%
04:00 +24°C° 0 mm 1 mps 740 mmHg 99%
05:00 +24°C° 0 mm 1 mps 741 mmHg 99%
06:00 +23°C° 0 mm 1 mps 741 mmHg 99%
07:00 +25°C° 0 mm 1 mps 741 mmHg 93%
08:00 +27°C° 0 mm 1 mps 742 mmHg 87%
09:00 +28°C° 0 mm 1 mps 742 mmHg 81%
10:00 +30°C° 0 mm 1 mps 742 mmHg 74%
11:00 +31°C° 0 mm 1 mps 741 mmHg 67%
12:00 +33°C° 0 mm 1 mps 741 mmHg 61%
13:00 +33°C° 0 mm 1 mps 740 mmHg 56%
14:00 +34°C° 0 mm 1 mps 739 mmHg 51%
15:00 +35°C° 0 mm 1 mps 739 mmHg 46%
16:00 +33°C° 0.1 mm 1 mps 739 mmHg 55%
17:00 +31°C° 0.1 mm 1 mps 739 mmHg 64%
18:00 +28°C° 0.1 mm 1 mps 739 mmHg 72%
19:00 +25°C° 0.9 mm 0 mps 739 mmHg 80%
20:00 +24°C° 0.9 mm 0 mps 740 mmHg 88%
21:00 +23°C° 0.9 mm 0 mps 741 mmHg 96%
22:00 +23°C° 0.1 mm 0 mps 741 mmHg 97%
23:00 +24°C° 0.1 mm 1 mps 741 mmHg 98%

1 Noviembre, Domingo

Tiempo Temperatura Precipitaciones Viento Presión Humedad
00:00 +24°C° 0.1 mm 1 mps 741 mmHg 99%
01:00 +24°C° 0 mm 1 mps 740 mmHg 99%
02:00 +24°C° 0 mm 1 mps 740 mmHg 99%
03:00 +24°C° 0 mm 1 mps 740 mmHg 99%
04:00 +24°C° 0 mm 1 mps 740 mmHg 99%
05:00 +24°C° 0 mm 1 mps 740 mmHg 99%
06:00 +23°C° 0 mm 1 mps 740 mmHg 99%
07:00 +25°C° 0 mm 1 mps 740 mmHg 95%
08:00 +26°C° 0 mm 1 mps 741 mmHg 91%
09:00 +27°C° 0 mm 1 mps 741 mmHg 86%
10:00 +29°C° 0 mm 1 mps 741 mmHg 79%
11:00 +30°C° 0 mm 1 mps 740 mmHg 71%
12:00 +32°C° 0 mm 1 mps 740 mmHg 64%
13:00 +32°C° 0 mm 1 mps 739 mmHg 61%
14:00 +33°C° 0 mm 1 mps 739 mmHg 58%
15:00 +33°C° 0 mm 1 mps 738 mmHg 55%
16:00 +31°C° 0.1 mm 1 mps 738 mmHg 64%
17:00 +29°C° 0.1 mm 1 mps 738 mmHg 73%
18:00 +28°C° 0.1 mm 1 mps 739 mmHg 81%
19:00 +27°C° 0.5 mm 1 mps 739 mmHg 86%
20:00 +26°C° 0.5 mm 1 mps 740 mmHg 91%
21:00 +25°C° 0.5 mm 1 mps 740 mmHg 97%
22:00 +25°C° 0 mm 1 mps 740 mmHg 97%
23:00 +24°C° 0 mm 1 mps 740 mmHg 98%

2 Noviembre, Lunes

Tiempo Temperatura Precipitaciones Viento Presión Humedad
00:00 +24°C° 0 mm 1 mps 740 mmHg 99%
01:00 +24°C° 0 mm 1 mps 740 mmHg 99%
02:00 +24°C° 0 mm 1 mps 739 mmHg 99%
03:00 +22°C° 0 mm 0 mps 739 mmHg 99%
04:00 +21°C° 0 mm 0 mps 739 mmHg 99%
05:00 +23°C° 0 mm 1 mps 739 mmHg 99%
06:00 +23°C° 0 mm 1 mps 740 mmHg 99%
07:00 +25°C° 0 mm 1 mps 740 mmHg 95%
08:00 +26°C° 0 mm 1 mps 741 mmHg 92%
09:00 +27°C° 0 mm 1 mps 741 mmHg 88%
10:00 +28°C° 0 mm 1 mps 741 mmHg 81%
11:00 +30°C° 0 mm 1 mps 741 mmHg 73%
12:00 +31°C° 0 mm 1 mps 740 mmHg 66%
13:00 +32°C° 0 mm 1 mps 740 mmHg 64%
14:00 +32°C° 0 mm 1 mps 739 mmHg 61%
15:00 +33°C° 0 mm 1 mps 738 mmHg 58%
16:00 +31°C° 0.2 mm 1 mps 738 mmHg 68%
17:00 +29°C° 0.2 mm 1 mps 739 mmHg 77%
18:00 +27°C° 0.2 mm 1 mps 739 mmHg 87%
19:00 +26°C° 0.8 mm 1 mps 739 mmHg 91%
20:00 +26°C° 0.8 mm 1 mps 740 mmHg 94%
21:00 +25°C° 0.8 mm 1 mps 740 mmHg 97%
22:00 +25°C° 0 mm 1 mps 740 mmHg 98%
23:00 +24°C° 0 mm 1 mps 741 mmHg 98%

3 Noviembre, Martes

Tiempo Temperatura Precipitaciones Viento Presión Humedad
00:00 +24°C° 0 mm 1 mps 741 mmHg 99%
01:00 +24°C° 0 mm 1 mps 740 mmHg 99%
02:00 +22°C° 0 mm 0 mps 740 mmHg 99%
03:00 +22°C° 0 mm 0 mps 739 mmHg 99%
04:00 +22°C° 0 mm 0 mps 740 mmHg 99%
05:00 +21°C° 0 mm 0 mps 740 mmHg 99%
06:00 +21°C° 0 mm 0 mps 740 mmHg 99%
07:00 +23°C° 0 mm 0 mps 741 mmHg 95%
08:00 +26°C° 0 mm 1 mps 741 mmHg 91%
09:00 +27°C° 0 mm 1 mps 741 mmHg 86%
10:00 +30°C° 0 mm 1 mps 741 mmHg 75%
11:00 +32°C° 0 mm 1 mps 741 mmHg 63%
12:00 +35°C° 0 mm 1 mps 740 mmHg 51%
13:00 +35°C° 0 mm 1 mps 740 mmHg 50%
14:00 +35°C° 0 mm 1 mps 739 mmHg 49%
15:00 +35°C° 0 mm 1 mps 738 mmHg 47%
16:00 +32°C° 0.1 mm 1 mps 738 mmHg 58%
17:00 +30°C° 0.1 mm 1 mps 739 mmHg 68%
18:00 +28°C° 0.1 mm 1 mps 739 mmHg 78%
19:00 +27°C° 0.9 mm 1 mps 740 mmHg 84%
20:00 +26°C° 0.9 mm 1 mps 740 mmHg 90%
21:00 +23°C° 0.9 mm 0 mps 741 mmHg 96%
22:00 +23°C° 0.1 mm 0 mps 741 mmHg 97%
23:00 +24°C° 0.1 mm 1 mps 741 mmHg 98%
Mostrar más

Necesitamos Su Consentimiento

Meteoprog y nuestros Proveedores de Servicios pueden almacenar y acceder a sus datos personales como cookies, identificadores de dispositivo u otras tecnologías similares de su dispositivo y procesar dichos datos para personalizar contenido y anuncios, además de ofrecer funciones de redes sociales y analizar el tráfico.

  • Almacenar y/o acceder a información en su dispositivo

    Se puede almacenar o acceder a cookies, identificadores de dispositivo u otra información de su dispositivo para los fines anteriormente indicados.

  • Anuncios y contenido personalizados, medición de anuncios y contenido, percepciones del público, y desarrollo de productos

    Los anuncios y el contenido pueden personalizarse en base a su perfil. Se pueden añadir más datos para personalizar mejor los anuncios y contenidos. Se puede medir el rendimiento de los anuncios y contenidos. Se puede obtener la percepción sobre el público que ha visto los anuncios y contenidos. Dichos datos pueden usarse para desarrollar o mejorar la experiencia del usuario, sistemas y software.

Al hacer clic en ‘Estoy De Acuerdo’ usted permitirá el uso de las cookies, identificadores de dispositivo, balizas web u otras tecnologías similares indicadas. Su configuración puede cambiarse desde el navegador de su dispositivo.

Para ciertos fines, los intereses legítimos pueden ser considerados por encima del consentimiento. Puede leer más sobre ello en nuestra Política de Privacidad y Cookies.